Location: Forst
(46.9333°N, 15.4333°E)
Time: 14:26:10
(UTC+00:00)

USA 238 DEB - Pass Details

Date: 01 December 2020
Orbit: 996 x 1216 km, 63.4° (Epoch: 22 January)

Event Time Altitude Azimuth Distance (km) Brightness Sun altitude
Rises 17:02:03 0° 195° (SSW) 3,712 6.9 -18.2°
Reaches altitude 10° 17:04:41 10° 189° (S) 2,779 6.1 -18.7°
Maximum altitude 17:10:51 46° 118° (ESE) 1,367 3.9 -19.7°
Enters shadow 17:13:10 34° 72° (ENE) 1,662 4.1 -20.1°
